FENGYUN 1C DEB, 41008

Orbit data source: Space-Track

FENGYUN 1C DEB, 41008 is space debris in SSO originally from a launch on Mon, 10 May 1999 UTC launched from the Taiyaun Space Center, China (TSC). Fengyun 1C debris stems from the Chinese weather satellite Fengyun-1C, which was intentionally destroyed by a Chinese anti-satellite missile in 2007. This event dramatically increased the amount of space debris, with thousands of trackable fragments posing hazards to satellites and human spaceflight. The Fengyun 1C debris cloud has become a focal point in discussions about space sustainability and the need for international regulations to prevent the creation of new debris.

Loading next visibility...
FENGYUN 1C DEB details
Identifier
41008, 1999-025EXN
Orbit
SSO
Last TLE update2 weeks ago
Origin
Flag of CNCASC (CN / PRC)
ManufacturerUnknown
MissionSpacecraft
Bus & MotorUnknown
MassUnknown
Launch date (UTC)
1999-05-10 (26 years ago)
Launch vehicleUnknown
Launch site
Taiyaun Space Center, China (TSC)
Object type
Payload
Rocket body
Debris
Shape & HBRUnknown
Radar Cross SectionSmall (<0.1 m²)

Expand to show TLE details & history

TLE from 2 weeks ago
0 FENGYUN 1C DEB
1 41008U 99025EXN 24346.73041634  .00001114  00000-0  66296-3 0  9994
2 41008  99.2730 149.5029 0507722  18.1313 343.7225 13.59600728514686
Epoch: 2024-12-11T17:31Z
Definitive object data (Epoch: 2024-12-11T17:31:47.971Z)
Latitude0.00001°
Longitude165.63211°
Altitude680.114 km
Speed7.697 km/s
True Right ascension09h 58m 00s
True Declination0° 00' 00"
Sunlit
Object was in daylight at TLE epoch
Visualization TLE readout
Latitude79.0797°
Longitude122.58043°
Altitude1,127.021 km
Speed7.258 km/s
Apparent Right ascension05h 54m 37s
Apparent Declination27° 42' 59"
Sunlit
Object is in full shadow
Visualization observer readout
Local Sidereal Time17:34:13
Azimuth355.122° N
Elevation-22.201°
Doppler factor1
Orbital elements
Apogee altitude1,410.751 km
Perigee altitude658.049 km
Semi-major axis7,412.537 km
Eccentricity0.0507722
Inclination99.273°
RAAN149.5029°
Arg. of periapsis18.1313°
True anomaly341.98653°
Mean anomaly343.7225°
Eccentric anomaly342.86545°
Mean motion3.40089 °/min
BSTAR0.00066296
Orbital period105.85 mins
Loading maneuver chart data...
Loading historical data...
Loading historical data...
Loading historical data...
Loading historical data...
Loading historical data...
Loading historical data...
Loading historical data...

FENGYUN 1C DEB Visibility forecast

Observer location: undefined°, undefined

Span
Click to sort rows by Start time (UTC) header in descending order
Start Az.
Max El. time (UTC)
Max El. Az.
Max El.
End time (UTC)
End Az.
7 mins2024-12-26 21:58:45.830Z62.833° ENE2024-12-26 22:01:45.830Z85.552° E13.445°2024-12-26 22:05:45.830Z115.066° SE
14 mins2024-12-26 23:40:45.830Z20.086° NNE2024-12-26 23:47:45.830Z128.256° SE43.408°2024-12-26 23:54:45.830Z186.636° SSW
10 mins2024-12-27 01:26:45.830Z340.625° N2024-12-27 01:30:45.830Z301.944° NW24.621°2024-12-27 01:36:45.830Z249.933° W
7 mins2024-12-27 09:51:45.830Z98.5° ESE2024-12-27 09:54:45.830Z52.613° ENE22.528°2024-12-27 09:58:45.830Z9.934° NNE
9 mins2024-12-27 11:34:45.830Z197.958° SSW2024-12-27 11:38:45.830Z272.556° WNW33.455°2024-12-27 11:43:45.830Z332.254° NNW
|